When you browse on this site, cookies collect data to enhance your experience and personalize the content and advertising you see.
Visit our Privacy Policy to learn more. By continuing to use the site, you agree to this use of cookies and data.
  • In Hungary
  • List of Countries
  • For 7 days
  • Water Temperature
  • Satellite Maps
  • Weather Map
  • News
  • Weather Widgets
  • user-avatar
    Login

    Hourly Weather Spindleruv Mlyn

    Today, 24 June, Monday

    Time Temperature Precipitation Wind Pressure Humidity
    00:00 +10°C° 0 mm 1 mps 676 mmHg 87%
    01:00 +9°C° 0 mm 2 mps 676 mmHg 83%
    02:00 +10°C° 0 mm 1 mps 676 mmHg 81%
    03:00 +9°C° 0 mm 1 mps 676 mmHg 79%
    04:00 +9°C° 0 mm 1 mps 676 mmHg 77%
    05:00 +11°C° 0 mm 1 mps 677 mmHg 72%
    06:00 +13°C° 0 mm 1 mps 678 mmHg 66%
    07:00 +16°C° 0 mm 1 mps 679 mmHg 56%
    08:00 +18°C° 0 mm 1 mps 679 mmHg 55%
    09:00 +18°C° 0 mm 2 mps 679 mmHg 53%
    10:00 +20°C° 0 mm 2 mps 679 mmHg 51%
    11:00 +20°C° 0 mm 3 mps 679 mmHg 53%
    12:00 +21°C° 0 mm 3 mps 680 mmHg 54%
    13:00 +21°C° 0 mm 4 mps 680 mmHg 56%
    14:00 +21°C° 0 mm 4 mps 680 mmHg 59%
    15:00 +21°C° 0 mm 3 mps 679 mmHg 61%
    16:00 +21°C° 0 mm 3 mps 679 mmHg 64%
    17:00 +20°C° 0 mm 3 mps 679 mmHg 70%
    18:00 +19°C° 0 mm 3 mps 679 mmHg 76%
    19:00 +18°C° 0 mm 2 mps 679 mmHg 82%
    20:00 +17°C° 0 mm 2 mps 679 mmHg 85%
    21:00 +16°C° 0 mm 2 mps 678 mmHg 88%
    22:00 +14°C° 0 mm 2 mps 678 mmHg 90%
    23:00 +14°C° 0 mm 2 mps 678 mmHg 89%

    Tomorrow, 25 June, Tuesday

    Time Temperature Precipitation Wind Pressure Humidity
    00:00 +13°C° 0 mm 2 mps 678 mmHg 88%
    01:00 +13°C° 0 mm 2 mps 678 mmHg 86%
    02:00 +12°C° 0 mm 2 mps 678 mmHg 88%
    03:00 +12°C° 0 mm 2 mps 677 mmHg 89%
    04:00 +12°C° 0 mm 2 mps 677 mmHg 91%
    05:00 +14°C° 0 mm 2 mps 678 mmHg 86%
    06:00 +16°C° 0 mm 2 mps 679 mmHg 82%
    07:00 +18°C° 0 mm 2 mps 679 mmHg 78%
    08:00 +19°C° 0 mm 2 mps 680 mmHg 72%
    09:00 +21°C° 0 mm 2 mps 680 mmHg 67%
    10:00 +23°C° 0 mm 2 mps 680 mmHg 61%
    11:00 +24°C° 0 mm 2 mps 680 mmHg 59%
    12:00 +25°C° 0 mm 3 mps 680 mmHg 57%
    13:00 +25°C° 0 mm 3 mps 680 mmHg 56%
    14:00 +25°C° 0 mm 3 mps 680 mmHg 57%
    15:00 +25°C° 0 mm 2 mps 680 mmHg 58%
    16:00 +25°C° 0 mm 2 mps 680 mmHg 60%
    17:00 +24°C° 0 mm 2 mps 679 mmHg 67%
    18:00 +23°C° 0 mm 1 mps 679 mmHg 74%
    19:00 +22°C° 0 mm 1 mps 679 mmHg 81%
    20:00 +21°C° 0 mm 1 mps 679 mmHg 84%
    21:00 +19°C° 0 mm 1 mps 678 mmHg 88%
    22:00 +18°C° 0 mm 1 mps 678 mmHg 92%
    23:00 +18°C° 0 mm 1 mps 678 mmHg 93%

    Day after tomorrow, 26 June, Wednesday

    Time Temperature Precipitation Wind Pressure Humidity
    00:00 +18°C° 0 mm 1 mps 678 mmHg 93%
    01:00 +16°C° 0 mm 1 mps 678 mmHg 94%
    02:00 +16°C° 0 mm 1 mps 678 mmHg 94%
    03:00 +16°C° 0 mm 1 mps 678 mmHg 94%
    04:00 +16°C° 0 mm 1 mps 677 mmHg 94%
    05:00 +18°C° 0 mm 1 mps 678 mmHg 89%
    06:00 +20°C° 0 mm 1 mps 678 mmHg 84%
    07:00 +21°C° 0 mm 1 mps 679 mmHg 79%
    08:00 +23°C° 0 mm 1 mps 679 mmHg 72%
    09:00 +25°C° 0 mm 2 mps 679 mmHg 65%
    10:00 +26°C° 0 mm 2 mps 680 mmHg 58%
    11:00 +27°C° 0 mm 2 mps 680 mmHg 54%
    12:00 +28°C° 0 mm 2 mps 680 mmHg 51%
    13:00 +28°C° 0 mm 2 mps 680 mmHg 48%
    14:00 +28°C° 0 mm 2 mps 680 mmHg 49%
    15:00 +28°C° 0 mm 2 mps 679 mmHg 50%
    16:00 +28°C° 0 mm 2 mps 679 mmHg 51%
    17:00 +27°C° 0 mm 2 mps 678 mmHg 58%
    18:00 +25°C° 0 mm 2 mps 678 mmHg 66%
    19:00 +24°C° 0 mm 1 mps 677 mmHg 73%
    20:00 +23°C° 0.1 mm 1 mps 677 mmHg 75%
    21:00 +21°C° 0.1 mm 1 mps 677 mmHg 77%
    22:00 +20°C° 0.1 mm 1 mps 677 mmHg 78%
    23:00 +20°C° 0.3 mm 1 mps 676 mmHg 82%

    27 June, Thursday

    Time Temperature Precipitation Wind Pressure Humidity
    00:00 +18°C° 0.3 mm 2 mps 676 mmHg 86%
    01:00 +18°C° 0.3 mm 2 mps 676 mmHg 90%
    02:00 +17°C° 0.7 mm 2 mps 676 mmHg 92%
    03:00 +17°C° 0.7 mm 2 mps 676 mmHg 95%
    04:00 +17°C° 0.7 mm 2 mps 676 mmHg 97%
    05:00 +17°C° 0.1 mm 3 mps 676 mmHg 95%
    06:00 +17°C° 0.1 mm 3 mps 677 mmHg 93%
    07:00 +17°C° 0.1 mm 3 mps 677 mmHg 91%
    08:00 +17°C° 0 mm 4 mps 677 mmHg 83%
    09:00 +18°C° 0 mm 4 mps 677 mmHg 74%
    10:00 +18°C° 0 mm 4 mps 678 mmHg 65%
    11:00 +19°C° 0 mm 4 mps 678 mmHg 60%
    12:00 +19°C° 0 mm 4 mps 678 mmHg 55%
    13:00 +19°C° 0 mm 4 mps 678 mmHg 51%
    14:00 +19°C° 0 mm 4 mps 677 mmHg 52%
    15:00 +19°C° 0 mm 4 mps 677 mmHg 53%
    16:00 +19°C° 0 mm 4 mps 677 mmHg 54%
    17:00 +18°C° 0 mm 3 mps 677 mmHg 60%
    18:00 +17°C° 0 mm 3 mps 676 mmHg 66%
    19:00 +16°C° 0 mm 2 mps 676 mmHg 72%
    20:00 +15°C° 0 mm 2 mps 676 mmHg 74%
    21:00 +13°C° 0 mm 2 mps 676 mmHg 76%
    22:00 +12°C° 0 mm 2 mps 676 mmHg 78%
    23:00 +10°C° 0 mm 2 mps 675 mmHg 77%

    28 June, Friday

    Time Temperature Precipitation Wind Pressure Humidity
    00:00 +11°C° 0 mm 1 mps 675 mmHg 75%
    01:00 +10°C° 0 mm 1 mps 675 mmHg 74%
    02:00 +10°C° 0 mm 1 mps 675 mmHg 77%
    03:00 +10°C° 0 mm 1 mps 675 mmHg 80%
    04:00 +9°C° 0 mm 1 mps 674 mmHg 83%
    05:00 +10°C° 0 mm 2 mps 675 mmHg 81%
    06:00 +12°C° 0 mm 2 mps 675 mmHg 78%
    07:00 +13°C° 0 mm 3 mps 675 mmHg 76%
    08:00 +14°C° 0 mm 3 mps 676 mmHg 68%
    09:00 +16°C° 0 mm 3 mps 676 mmHg 60%
    10:00 +17°C° 0 mm 4 mps 676 mmHg 52%
    11:00 +17°C° 0 mm 4 mps 676 mmHg 51%
    12:00 +18°C° 0 mm 4 mps 676 mmHg 50%
    13:00 +18°C° 0 mm 4 mps 676 mmHg 50%
    14:00 +18°C° 0 mm 4 mps 676 mmHg 51%
    15:00 +18°C° 0 mm 4 mps 676 mmHg 52%
    16:00 +18°C° 0 mm 4 mps 676 mmHg 53%
    17:00 +17°C° 0 mm 3 mps 676 mmHg 60%
    18:00 +16°C° 0 mm 2 mps 676 mmHg 67%
    19:00 +16°C° 0 mm 2 mps 675 mmHg 74%
    20:00 +14°C° 0 mm 1 mps 675 mmHg 79%
    21:00 +12°C° 0 mm 1 mps 675 mmHg 83%
    22:00 +11°C° 0 mm 1 mps 675 mmHg 88%
    23:00 +11°C° 0 mm 1 mps 675 mmHg 88%

    29 June, Saturday

    Time Temperature Precipitation Wind Pressure Humidity
    00:00 +11°C° 0 mm 1 mps 675 mmHg 89%
    01:00 +11°C° 0 mm 1 mps 675 mmHg 89%
    02:00 +10°C° 0 mm 1 mps 675 mmHg 89%
    03:00 +10°C° 0 mm 1 mps 675 mmHg 90%
    04:00 +9°C° 0 mm 1 mps 674 mmHg 90%
    05:00 +11°C° 0 mm 1 mps 675 mmHg 83%
    06:00 +13°C° 0 mm 1 mps 675 mmHg 76%
    07:00 +15°C° 0 mm 1 mps 676 mmHg 69%
    08:00 +16°C° 0 mm 1 mps 676 mmHg 68%
    09:00 +16°C° 0 mm 1 mps 676 mmHg 66%
    10:00 +18°C° 0 mm 1 mps 677 mmHg 65%
    11:00 +18°C° 0 mm 2 mps 676 mmHg 63%
    12:00 +18°C° 0 mm 2 mps 676 mmHg 60%
    13:00 +19°C° 0 mm 2 mps 676 mmHg 58%
    14:00 +19°C° 0 mm 2 mps 676 mmHg 57%
    15:00 +20°C° 0 mm 2 mps 676 mmHg 56%
    16:00 +20°C° 0 mm 2 mps 676 mmHg 55%
    17:00 +19°C° 0 mm 2 mps 676 mmHg 60%
    18:00 +19°C° 0 mm 1 mps 676 mmHg 66%
    19:00 +18°C° 0 mm 1 mps 675 mmHg 71%
    20:00 +15°C° 0 mm 1 mps 675 mmHg 75%
    21:00 +13°C° 0 mm 1 mps 675 mmHg 78%
    22:00 +12°C° 0 mm 1 mps 675 mmHg 81%
    23:00 +11°C° 0 mm 1 mps 675 mmHg 81%
    Show more